Location: Tyumen
(57.1527°N, 65.5323°E)
Time: 08:04:48
(UTC+05:00)

ISS - Pass Details

Date: 04 December 2021
Orbit: 413 x 422 km, 51.6° (Epoch: 27 January)

Event Time Altitude Azimuth Distance (km) Brightness Sun altitude
Rises 17:04:51 0° 262° (W) 2,390 1.6 -8.1°
Reaches altitude 10° 17:07:07 10° 252° (WSW) 1,521 0.7 -8.3°
Maximum altitude 17:10:09 30° 189° (S) 795 -1.9 -8.7°
Drops below altitude 10° 17:13:10 10° 127° (SE) 1,514 -1.2 -9.1°
Enters shadow 17:15:07 - 117° (ESE) 2,263 -0.4 -9.3°
